Total_Precipitation_Accumulation
0.02 0.27 0.59 0.42 0.27 0.07 0.01 0.00 0.00 0.00 0.00 0.00 0.00 0.00 0.00 0.00 0.00 0.00 0.00 0.00 0.00 0.00 0.00 0.04 0.15 0.13 0.10 0.10 0.06 0.03 0.03 0.04 0.04 0.06 0.05 0.04 0.02 0.01 0.01 0.00 0.00 0.00 0.00 0.00 0.00 0.01 0.01 0.01 0.01
0.06 0.25 0.44 0.47 0.25 0.03 0.00 0.00 0.00 0.00 0.00 0.00 0.00 0.00 0.00 0.00 0.00 0.00 0.00 0.00 0.00 0.00 0.00 0.01 0.20 0.14 0.12 0.09 0.08 0.04 0.02 0.03 0.03 0.05 0.04 0.03 0.02 0.01 0.00 0.00 0.00 0.00 0.00 0.00 0.00 0.00 0.00 0.00 0.01
0.22 0.25 0.31 0.28 0.20 0.03 0.00 0.00 0.00 0.00 0.00 0.00 0.00 0.00 0.00 0.00 0.00 0.00 0.00 0.00 0.00 0.00 0.01 0.07 0.22 0.20 0.12 0.10 0.08 0.08 0.04 0.03 0.02 0.02 0.04 0.02 0.01 0.01 0.00 0.00 0.00 0.00 0.00 0.00 0.00 0.00 0.00 0.01 0.01
0.42 0.38 0.37 0.12 0.02 0.00 0.00 0.00 0.00 0.00 0.00 0.00 0.00 0.00 0.00 0.00 0.00 0.00 0.00 0.00 0.00 0.02 0.15 0.25 0.29 0.26 0.17 0.11 0.11 0.10 0.08 0.05 0.02 0.02 0.02 0.02 0.01 0.01 0.00 0.00 0.00 0.00 0.00 0.00 0.00 0.00 0.00 0.01 0.00
0.61 0.61 0.18 0.06 0.00 0.00 0.00 0.00 0.00 0.00 0.00 0.00 0.00 0.00 0.00 0.00 0.00 0.00 0.00 0.01 0.00 0.01 0.17 0.44 0.32 0.34 0.22 0.11 0.10 0.08 0.07 0.05 0.04 0.02 0.02 0.01 0.01 0.01 0.00 0.00 0.00 0.00 0.00 0.00 0.00 0.00 0.01 0.01 0.00
0.90 0.63 0.27 0.04 0.00 0.00 0.00 0.00 0.00 0.00 0.00 0.00 0.00 0.00 0.00 0.00 0.00 0.00 0.00 0.00 0.05 0.04 0.14 0.57 0.60 0.58 0.41 0.18 0.11 0.09 0.06 0.03 0.03 0.02 0.01 0.01 0.00 0.00 0.00 0.00 0.00 0.00 0.00 0.00 0.00 0.01 0.01 0.00 0.00
0.62 0.53 0.39 0.10 0.01 0.00 0.00 0.00 0.00 0.01 0.00 0.00 0.00 0.00 0.00 0.00 0.00 0.00 0.00 0.01 0.05 0.05 0.20 0.35 0.72 0.96 1.03 0.64 0.31 0.13 0.06 0.03 0.02 0.03 0.01 0.01 0.00 0.00 0.00 0.00 0.00 0.00 0.00 0.00 0.00 0.01 0.00 0.00 0.00
0.38 0.48 0.37 0.22 0.08 0.00 0.00 0.00 0.00 0.00 0.00 0.00 0.00 0.00 0.00 0.00 0.00 0.00 0.00 0.00 0.08 0.16 0.25 0.31 0.56 0.93 0.86 0.74 0.61 0.35 0.12 0.03 0.01 0.01 0.01 0.00 0.00 0.00 0.00 0.00 0.00 0.00 0.00 0.00 0.00 0.00 0.00 0.00 0.00
0.25 0.94 0.59 0.22 0.06 0.02 0.00 0.00 0.00 0.00 0.00 0.00 0.00 0.00 0.00 0.00 0.00 0.00 0.00 0.01 0.08 0.25 0.44 0.36 0.48 0.84 0.83 0.75 0.55 0.41 0.21 0.08 0.01 0.00 0.00 0.00 0.00 0.00 0.00 0.00 0.00 0.00 0.00 0.00 0.00 0.00 0.00 0.00 0.00
0.35 0.58 0.42 0.12 0.07 0.07 0.01 0.00 0.00 0.00 0.00 0.01 0.00 0.00 0.00 0.00 0.00 0.00 0.00 0.05 0.27 0.23 0.30 0.35 0.34 0.49 0.90 0.93 0.76 0.39 0.19 0.06 0.01 0.00 0.00 0.00 0.00 0.00 0.00 0.00 0.00 0.00 0.00 0.00 0.00 0.00 0.00 0.00 0.00
0.33 0.70 0.21 0.04 0.10 0.20 0.13 0.03 0.01 0.02 0.01 0.00 0.00 0.00 0.00 0.00 0.00 0.00 0.00 0.02 0.26 0.56 0.43 0.30 0.24 0.23 0.92 1.11 1.17 0.78 0.34 0.08 0.01 0.00 0.00 0.00 0.00 0.00 0.00 0.00 0.00 0.00 0.00 0.00 0.00 0.00 0.00 0.00 0.00
0.33 0.37 0.34 0.15 0.04 0.24 0.25 0.15 0.15 0.09 0.03 0.00 0.00 0.00 0.00 0.00 0.00 0.00 0.00 0.00 0.06 0.41 0.95 0.70 0.48 0.26 0.37 1.47 1.39 1.24 0.53 0.15 0.01 0.00 0.00 0.00 0.00 0.00 0.00 0.00 0.00 0.00 0.00 0.00 0.00 0.00 0.00 0.00 0.00
0.19 0.19 0.07 0.13 0.08 0.11 0.33 0.45 0.32 0.29 0.07 0.00 0.00 0.00 0.00 0.00 0.00 0.00 0.00 0.02 0.03 0.10 0.70 1.90 0.94 0.63 0.54 0.69 1.80 1.62 0.94 0.25 0.05 0.01 0.00 0.00 0.00 0.00 0.00 0.00 0.00 0.00 0.00 0.00 0.00 0.00 0.00 0.00 0.00
0.05 0.02 0.05 0.08 0.14 0.25 0.34 0.43 0.50 0.31 0.09 0.02 0.00 0.00 0.00 0.00 0.00 0.00 0.01 0.01 0.02 0.04 0.19 1.64 2.29 1.09 0.87 0.50 1.02 1.77 1.42 0.64 0.19 0.06 0.01 0.00 0.00 0.00 0.00 0.00 0.00 0.00 0.00 0.00 0.00 0.00 0.00 0.00 0.00
0.01 0.02 0.03 0.04 0.04 0.22 0.36 0.35 0.42 0.21 0.08 0.07 0.02 0.00 0.00 0.00 0.00 0.00 0.01 0.01 0.00 0.02 0.12 0.53 2.49 2.01 1.10 0.97 0.54 1.07 1.57 0.94 0.43 0.22 0.07 0.00 0.00 0.00 0.00 0.00 0.00 0.00 0.00 0.00 0.00 0.00 0.00 0.00 0.00
0.01 0.05 0.08 0.01 0.00 0.03 0.45 0.67 0.05 0.04 0.14 0.21 0.06 0.01 0.00 0.00 0.00 0.00 0.01 0.05 0.04 0.05 0.07 0.33 0.91 2.36 1.89 0.93 0.92 0.68 1.06 1.29 0.65 0.37 0.14 0.01 0.00 0.00 0.00 0.00 0.00 0.00 0.00 0.00 0.00 0.00 0.00 0.00 0.00
0.06 0.06 0.03 0.00 0.00 0.02 0.30 0.54 0.04 0.06 0.25 0.25 0.16 0.05 0.01 0.00 0.00 0.01 0.02 0.05 0.07 0.10 0.11 0.21 0.42 1.09 2.08 1.68 0.94 0.99 0.73 1.01 0.94 0.57 0.20 0.04 0.00 0.00 0.00 0.00 0.00 0.00 0.00 0.00 0.00 0.00 0.00 0.00 0.00
0.02 0.03 0.01 0.00 0.00 0.04 0.10 0.20 0.03 0.11 0.28 0.31 0.18 0.09 0.04 0.01 0.00 0.00 0.01 0.04 0.12 0.16 0.15 0.18 0.22 0.48 1.17 2.03 1.97 1.39 1.46 1.20 1.01 0.65 0.41 0.05 0.01 0.00 0.00 0.00 0.00 0.00 0.00 0.00 0.00 0.00 0.00 0.00 0.00
0.04 0.04 0.02 0.00 0.00 0.02 0.03 0.03 0.02 0.09 0.31 0.35 0.34 0.16 0.08 0.02 0.02 0.02 0.02 0.08 0.14 0.12 0.12 0.11 0.16 0.20 0.62 1.16 1.80 1.90 1.66 1.51 1.25 0.94 0.53 0.12 0.03 0.00 0.00 0.00 0.00 0.00 0.00 0.00 0.00 0.00 0.00 0.00 0.00
0.05 0.08 0.05 0.01 0.00 0.06 0.04 0.01 0.01 0.05 0.27 0.28 0.46 0.37 0.15 0.04 0.02 0.05 0.02 0.05 0.12 0.11 0.06 0.09 0.12 0.15 0.24 0.50 0.70 1.14 1.44 1.57 1.51 1.22 0.81 0.35 0.07 0.00 0.00 0.00 0.00 0.00 0.00 0.00 0.00 0.00 0.00 0.00 0.00
0.04 0.03 0.00 0.01 0.02 0.04 0.08 0.04 0.02 0.03 0.11 0.25 0.35 0.54 0.43 0.20 0.05 0.03 0.06 0.02 0.15 0.16 0.04 0.05 0.11 0.13 0.20 0.29 0.63 1.01 1.54 1.95 1.97 1.66 1.31 0.70 0.30 0.05 0.00 0.00 0.00 0.00 0.00 0.00 0.00 0.00 0.00 0.00 0.00
0.08 0.00 0.00 0.00 0.09 0.05 0.11 0.13 0.01 0.01 0.06 0.16 0.29 0.40 0.45 0.32 0.19 0.05 0.04 0.04 0.08 0.21 0.15 0.09 0.10 0.10 0.18 0.25 0.40 0.52 0.74 1.12 1.28 1.20 1.01 0.88 0.48 0.17 0.01 0.00 0.00 0.00 0.00 0.00 0.00 0.00 0.00 0.00 0.00
0.07 0.00 0.02 0.02 0.04 0.15 0.09 0.16 0.04 0.00 0.01 0.05 0.10 0.19 0.25 0.32 0.26 0.15 0.06 0.10 0.18 0.23 0.26 0.15 0.10 0.08 0.09 0.30 0.39 0.35 0.42 0.59 0.83 1.02 0.86 0.76 0.51 0.19 0.04 0.00 0.00 0.00 0.00 0.00 0.00 0.00 0.00 0.00 0.00
0.10 0.15 0.15 0.14 0.18 0.35 0.08 0.22 0.06 0.15 0.08 0.01 0.03 0.04 0.22 0.39 0.39 0.26 0.13 0.13 0.22 0.26 0.31 0.30 0.19 0.12 0.09 0.10 0.36 0.64 0.46 0.52 0.81 0.99 0.81 0.58 0.31 0.13 0.03 0.00 0.00 0.00 0.00 0.00 0.00 0.00 0.00 0.00 0.00
0.48 0.37 0.32 0.30 0.31 0.12 0.01 0.20 0.30 0.15 0.12 0.05 0.04 0.06 0.20 0.53 0.49 0.48 0.41 0.38 0.32 0.21 0.24 0.25 0.23 0.10 0.11 0.11 0.15 0.57 0.83 0.52 0.47 0.52 0.46 0.51 0.23 0.07 0.02 0.00 0.00 0.00 0.00 0.00 0.00 0.00 0.00 0.00 0.00
0.51 0.31 0.15 0.07 0.11 0.02 0.07 0.17 0.28 0.22 0.16 0.13 0.17 0.20 0.16 0.13 0.28 0.48 0.57 0.57 0.37 0.18 0.19 0.24 0.23 0.16 0.09 0.10 0.11 0.23 0.49 0.91 0.75 0.55 0.45 0.35 0.29 0.06 0.00 0.00 0.00 0.00 0.00 0.00 0.00 0.00 0.00 0.00 0.00
0.34 0.26 0.12 0.15 0.10 0.06 0.16 0.22 0.19 0.14 0.18 0.18 0.17 0.14 0.10 0.07 0.10 0.25 0.36 0.40 0.46 0.28 0.11 0.28 0.35 0.20 0.13 0.06 0.10 0.11 0.15 0.37 0.81 0.77 0.50 0.38 0.41 0.29 0.07 0.00 0.00 0.00 0.00 0.00 0.00 0.00 0.00 0.00 0.00
0.35 0.20 0.20 0.21 0.24 0.17 0.17 0.11 0.16 0.20 0.22 0.26 0.27 0.22 0.17 0.11 0.11 0.13 0.15 0.20 0.34 0.42 0.14 0.16 0.35 0.20 0.08 0.10 0.08 0.08 0.08 0.18 0.33 0.63 0.63 0.47 0.49 0.42 0.23 0.03 0.00 0.00 0.00 0.00 0.00 0.00 0.00 0.00 0.00
0.25 0.24 0.35 0.20 0.24 0.34 0.14 0.13 0.17 0.17 0.21 0.21 0.29 0.31 0.24 0.17 0.13 0.13 0.08 0.07 0.15 0.35 0.31 0.11 0.20 0.22 0.11 0.06 0.07 0.05 0.10 0.17 0.35 0.31 0.51 0.52 0.51 0.45 0.33 0.17 0.01 0.00 0.00 0.00 0.00 0.00 0.00 0.00 0.00
0.11 0.21 0.33 0.25 0.45 0.38 0.11 0.06 0.10 0.13 0.17 0.15 0.16 0.30 0.25 0.21 0.17 0.12 0.07 0.03 0.03 0.15 0.34 0.20 0.08 0.11 0.08 0.07 0.04 0.06 0.10 0.07 0.18 0.24 0.25 0.46 0.51 0.47 0.40 0.31 0.10 0.00 0.00 0.00 0.00 0.00 0.00 0.00 0.00